Makita — V2ET2 — position and weather

sailwx.info

Track history (hours):
 
Tides and Currents Weather Stations Pressure Air Temp Water Temp Dewpoint Dewpoint Depression Visibility Wind Speed Wind Dir Waves Ship Positions

Makita

Last reported at 2014-Oct-22 01:17 UTC. Time now 2014-Oct-24 07:13 UTC.
Position N 01°15' E 104°03'.

Length 260 m; draft 9.9 m.

Type: Cargo ship. MMSI: 305543000.

Date/timePositionNaut miles runAvg speedWind from/ knotsBaromVisibWave heightAir tempDewpointWater temp
2014-Oct-22 01:17N 01°15' E 104°03'5 1.8
2014-Oct-21 22:33N 01°17' E 103°59'0 0.1
2014-Oct-21 20:33N 01°17' E 103°59'0 0.1
2014-Oct-21 19:27N 01°17' E 103°59'0 0.0
2014-Oct-21 18:21N 01°17' E 103°59'0 0.0
2014-Oct-21 17:33N 01°17' E 103°59'0 0.1
2014-Oct-21 16:09N 01°17' E 103°59'1 0.4
2014-Oct-21 14:31N 01°17' E 103°58'6 5.7
2014-Oct-21 13:33N 01°13' E 103°54'5 5.4
2014-Oct-21 12:32N 01°12' E 103°49'6 5.6
2014-Oct-21 11:24N 01°17' E 103°45'1 0.3
2014-Oct-21 09:19N 01°17' E 103°46'0 0.0
2014-Oct-21 07:31N 01°17' E 103°46'0 0.0
2014-Oct-21 06:28N 01°17' E 103°46'0 0.0
2014-Oct-21 05:31N 01°17' E 103°46'0 0.0
2014-Oct-21 04:25N 01°17' E 103°46'0 0.0
2014-Oct-21 03:10N 01°17' E 103°46'0 0.0
2014-Oct-21 02:28N 01°17' E 103°46'0 0.0
2014-Oct-21 01:32N 01°17' E 103°46'2 1.6
2014-Oct-21 00:33N 01°17' E 103°44'2 2.4
2014-Oct-20 23:33N 01°15' E 103°46'  
Track history (hours):
 
Tides and Currents Weather Stations Pressure Air Temp Water Temp Dewpoint Dewpoint Depression Visibility Wind Speed Wind Dir Waves Ship Positions

Makita

Last reported at 2014-Oct-22 01:17 UTC. Time now 2014-Oct-24 07:13 UTC.
Position N 01°15' E 104°03'.

Length 260 m; draft 9.9 m.

Type: Cargo ship. MMSI: 305543000.

Date/timePositionNaut miles runAvg speedWind from/ knotsBaromVisibWave heightAir tempDewpointWater temp
2014-Oct-22 01:17N 01°15' E 104°03'5 1.8
2014-Oct-21 22:33N 01°17' E 103°59'0 0.1
2014-Oct-21 20:33N 01°17' E 103°59'0 0.1
2014-Oct-21 19:27N 01°17' E 103°59'0 0.0
2014-Oct-21 18:21N 01°17' E 103°59'0 0.0
2014-Oct-21 17:33N 01°17' E 103°59'0 0.1
2014-Oct-21 16:09N 01°17' E 103°59'1 0.4
2014-Oct-21 14:31N 01°17' E 103°58'6 5.7
2014-Oct-21 13:33N 01°13' E 103°54'5 5.4
2014-Oct-21 12:32N 01°12' E 103°49'6 5.6
2014-Oct-21 11:24N 01°17' E 103°45'1 0.3
2014-Oct-21 09:19N 01°17' E 103°46'0 0.0
2014-Oct-21 07:31N 01°17' E 103°46'0 0.0
2014-Oct-21 06:28N 01°17' E 103°46'0 0.0
2014-Oct-21 05:31N 01°17' E 103°46'0 0.0
2014-Oct-21 04:25N 01°17' E 103°46'0 0.0
2014-Oct-21 03:10N 01°17' E 103°46'0 0.0
2014-Oct-21 02:28N 01°17' E 103°46'0 0.0
2014-Oct-21 01:32N 01°17' E 103°46'2 1.6
2014-Oct-21 00:33N 01°17' E 103°44'2 2.4
2014-Oct-20 23:33N 01°15' E 103°46'  

Dump ship's entire track history